Weather History for Monroe, WI

Change the Weather History Date:

Wednesday, February 22, 2012

  Actual Average Record
Temperature  
Mean Temperature 36 °F -  
Max Temperature 42 °F 0 °F 48 °F (1998)
Min Temperature 30 °F - 3 °F (2009)
Degree Days  
Heating Degree Days 29    
Moisture  
Dew Point 30 °F    
Average Humidity 85    
Maximum Humidity 100    
Minimum Humidity 61    
Precipitation  
Precipitation 0.00 in - - ()
Sea Level Pressure  
Sea Level Pressure 29.48 in    
Wind  
Wind Speed 9 mph (SW)    
Max Wind Speed 14 mph    
Max Gust Speed -    
Visibility 10 miles    
Events Rain    
Averages and records for this station are not official NWS values.
T = Trace of Precipitation, MM = Missing Value Source: NWS Daily Summary

Daily Weather History Graph

Daily Weather History Graph

Search for Another Location

Airport:

Trip Planner

Search our weather history database for the weather conditions in past years. The results will help you decide how hot, cold, wet, or windy it might be!

Date:

Astronomy

Feb. 22, 2012 Rise Set
Actual Time 6:45 AM CST 5:38 PM CST
Civil Twilight 6:17 AM CST 6:07 PM CST
Nautical Twilight 5:44 AM CST 6:40 PM CST
Astronomical Twilight 5:11 AM CST 7:12 PM CST
Moon 6:41 AM CST (2/22) 6:48 PM CST (2/22)
Length of Visible Light 11h 50m
Length of Day
10h 52m
New Moon, 1% of the Moon is Illuminated
Feb 22
New Moon
Feb 29
First Quarter
Mar 8
Full
Mar 14
Last Quarter
Mar 22
New

Hourly Weather History & Observations

Time (CST) Temp. Windchill Dew Point Humidity Pressure Visibility Wind Dir Wind Speed Gust Speed Precip Events Conditions
12:15 AM 32.0 °F 22.1 °F 26.6 °F 80% 29.63 in 10.0 mi WSW 13.8 mph - N/A   Clear
12:35 AM 32.0 °F 22.5 °F 26.6 °F 80% 29.62 in 10.0 mi WSW 12.7 mph - N/A   Scattered Clouds
12:55 AM 32.0 °F 22.1 °F 26.6 °F 80% 29.62 in 10.0 mi SW 13.8 mph - N/A   Overcast
1:15 AM 32.0 °F 23.0 °F 26.6 °F 80% 29.61 in 10.0 mi WSW 11.5 mph - N/A   Overcast
1:35 AM 32.0 °F 23.0 °F 26.6 °F 80% 29.59 in 10.0 mi WSW 11.5 mph - N/A   Overcast
1:55 AM 32.0 °F 23.6 °F 26.6 °F 80% 29.59 in 10.0 mi SW 10.4 mph - N/A   Overcast
2:15 AM 32.0 °F 22.5 °F 26.6 °F 80% 29.60 in 10.0 mi SSW 12.7 mph - N/A   Overcast
2:35 AM 32.0 °F 23.6 °F 26.6 °F 80% 29.58 in 10.0 mi SW 10.4 mph - N/A   Overcast
2:55 AM 32.0 °F 23.0 °F 26.6 °F 80% 29.58 in 10.0 mi SW 11.5 mph - N/A   Overcast
3:15 AM 32.0 °F 23.6 °F 26.6 °F 80% 29.57 in 10.0 mi SSW 10.4 mph - N/A   Overcast
3:35 AM 32.0 °F 23.6 °F 26.6 °F 80% 29.57 in 10.0 mi SW 10.4 mph - N/A   Scattered Clouds
3:55 AM 32.0 °F 24.2 °F 26.6 °F 80% 29.57 in 10.0 mi SW 9.2 mph - N/A   Scattered Clouds
4:15 AM 30.2 °F 21.9 °F 26.6 °F 86% 29.57 in 10.0 mi SSW 9.2 mph - N/A   Scattered Clouds
4:35 AM 30.2 °F 21.3 °F 26.6 °F 86% 29.56 in 10.0 mi SSW 10.4 mph - N/A   Scattered Clouds
4:55 AM 30.2 °F 21.9 °F 26.6 °F 86% 29.55 in 10.0 mi SSW 9.2 mph - N/A   Scattered Clouds
5:15 AM 30.2 °F 21.3 °F 28.4 °F 93% 29.55 in 10.0 mi SSW 10.4 mph - N/A   Scattered Clouds
5:35 AM 30.2 °F 20.8 °F 28.4 °F 93% 29.54 in 10.0 mi SSW 11.5 mph - N/A   Clear
5:55 AM 30.2 °F 21.9 °F 30.2 °F 100% 29.54 in 10.0 mi SSW 9.2 mph - N/A   Clear
6:15 AM 30.2 °F 22.6 °F 30.2 °F 100% 29.53 in 10.0 mi SSW 8.1 mph - N/A   Clear
6:35 AM 30.2 °F 22.6 °F 30.2 °F 100% 29.52 in 10.0 mi SSW 8.1 mph - N/A   Scattered Clouds
6:55 AM 30.2 °F 22.6 °F 30.2 °F 100% 29.51 in 10.0 mi SSW 8.1 mph - N/A   Scattered Clouds
7:15 AM 30.2 °F 23.4 °F 30.2 °F 100% 29.51 in 7.0 mi SSW 6.9 mph - N/A   Clear
7:55 AM 32.0 °F 26.4 °F 32.0 °F 100% 29.50 in 7.0 mi South 5.8 mph - N/A   Clear
8:15 AM 32.0 °F 26.4 °F 32.0 °F 100% 29.49 in 7.0 mi SSW 5.8 mph - N/A   Clear
8:55 AM 33.8 °F 28.6 °F 32.0 °F 93% 29.48 in 10.0 mi South 5.8 mph - N/A   Clear
9:35 AM 35.6 °F 29.2 °F 32.0 °F 87% 29.48 in 10.0 mi South 8.1 mph - N/A   Scattered Clouds
9:55 AM 35.6 °F 30.7 °F 32.0 °F 87% 29.47 in 10.0 mi South 5.8 mph - N/A   Scattered Clouds
10:15 AM 35.6 °F 29.9 °F 32.0 °F 87% 29.46 in 10.0 mi SSW 6.9 mph - N/A   Clear
10:35 AM 37.4 °F 34.9 °F 32.0 °F 81% 29.46 in 10.0 mi SSW 3.5 mph - N/A   Scattered Clouds
10:55 AM 41.0 °F 37.1 °F 32.0 °F 70% 29.45 in 10.0 mi WSW 5.8 mph - N/A   Clear
11:15 AM 42.8 °F 40.1 °F 30.2 °F 61% 29.45 in 10.0 mi SW 4.6 mph - N/A   Scattered Clouds
11:35 AM 41.0 °F 35.8 °F 32.0 °F 70% 29.45 in 10.0 mi SSW 8.1 mph - N/A   Mostly Cloudy
11:55 AM 41.0 °F 35.2 °F 32.0 °F 70% 29.44 in 10.0 mi WSW 9.2 mph - N/A   Mostly Cloudy
12:15 PM 42.8 °F 38.6 °F 32.0 °F 66% 29.43 in 10.0 mi SW 6.9 mph - N/A   Mostly Cloudy
12:35 PM 41.0 °F 34.3 °F 32.0 °F 70% 29.43 in 10.0 mi WSW 11.5 mph - N/A   Overcast
12:55 PM 41.0 °F 34.7 °F 30.2 °F 65% 29.42 in 10.0 mi WSW 10.4 mph - N/A   Overcast
1:15 PM 41.0 °F 34.7 °F 30.2 °F 65% 29.41 in 10.0 mi WSW 10.4 mph - N/A   Overcast
1:35 PM 41.0 °F 35.8 °F 30.2 °F 65% 29.40 in 10.0 mi West 8.1 mph - N/A   Overcast
1:55 PM 41.0 °F 35.8 °F 32.0 °F 70% 29.41 in 10.0 mi NW 8.1 mph - N/A   Overcast
2:15 PM 39.2 °F 37.0 °F 32.0 °F 75% 29.41 in 10.0 mi NW 3.5 mph - N/A   Drizzle
2:35 PM 37.4 °F 34.9 °F 32.0 °F 81% 29.41 in 10.0 mi NW 3.5 mph - N/A Rain Light Rain
2:55 PM 37.4 °F 33.8 °F 32.0 °F 81% 29.41 in 10.0 mi NNW 4.6 mph - N/A   Drizzle
3:15 PM 37.4 °F 33.8 °F 32.0 °F 81% 29.41 in 10.0 mi NW 4.6 mph - N/A   Light Drizzle
3:35 PM 37.4 °F 32.8 °F 32.0 °F 81% 29.41 in 10.0 mi NNW 5.8 mph - N/A   Overcast
3:55 PM 37.4 °F - 32.0 °F 81% 29.40 in 10.0 mi Calm Calm - N/A   Overcast
4:15 PM 37.4 °F 34.9 °F 32.0 °F 81% 29.40 in 10.0 mi NNW 3.5 mph - N/A   Overcast
4:35 PM 35.6 °F - 32.0 °F 87% 29.40 in 10.0 mi Calm Calm - N/A   Overcast
4:55 PM 35.6 °F 31.7 °F 32.0 °F 87% 29.41 in 10.0 mi NW 4.6 mph - N/A   Overcast
5:15 PM 35.6 °F 32.8 °F 32.0 °F 87% 29.40 in 10.0 mi West 3.5 mph - N/A   Overcast
5:35 PM 35.6 °F 31.7 °F 32.0 °F 87% 29.41 in 10.0 mi West 4.6 mph - N/A   Scattered Clouds
5:55 PM 35.6 °F 29.2 °F 32.0 °F 87% 29.41 in 10.0 mi WSW 8.1 mph - N/A   Clear
6:15 PM 33.8 °F 28.6 °F 32.0 °F 93% 29.42 in 10.0 mi WSW 5.8 mph - N/A   Scattered Clouds
6:35 PM 32.0 °F 26.4 °F 32.0 °F 100% 29.42 in 10.0 mi SW 5.8 mph - N/A   Scattered Clouds
6:55 PM 32.0 °F 24.8 °F 32.0 °F 100% 29.43 in 10.0 mi WSW 8.1 mph - N/A   Clear
7:15 PM 32.0 °F 24.2 °F 32.0 °F 100% 29.43 in 10.0 mi WSW 9.2 mph - N/A   Clear
7:35 PM 32.0 °F 23.0 °F 32.0 °F 100% 29.43 in 10.0 mi WSW 11.5 mph - N/A   Clear
7:55 PM 32.0 °F 23.6 °F 32.0 °F 100% 29.43 in 10.0 mi WSW 10.4 mph - N/A   Clear
8:15 PM 32.0 °F 24.8 °F 32.0 °F 100% 29.43 in 10.0 mi WSW 8.1 mph - N/A   Clear
8:35 PM 32.0 °F 24.2 °F 32.0 °F 100% 29.43 in 10.0 mi WSW 9.2 mph - N/A   Clear
8:55 PM 32.0 °F 24.2 °F 32.0 °F 100% 29.43 in 7.0 mi WSW 9.2 mph - N/A   Clear
9:15 PM 32.0 °F 25.6 °F 32.0 °F 100% 29.42 in 7.0 mi WSW 6.9 mph - N/A   Clear
9:35 PM 32.0 °F 24.8 °F 32.0 °F 100% 29.42 in 7.0 mi WSW 8.1 mph - N/A   Scattered Clouds
9:55 PM 32.0 °F 24.2 °F 32.0 °F 100% 29.42 in 7.0 mi WSW 9.2 mph - N/A   Mostly Cloudy
10:15 PM 32.0 °F 24.2 °F 32.0 °F 100% 29.43 in 5.0 mi WSW 9.2 mph - N/A   Mostly Cloudy
10:35 PM 32.0 °F 24.8 °F 32.0 °F 100% 29.42 in 5.0 mi WSW 8.1 mph - N/A   Overcast
10:55 PM 32.0 °F 25.6 °F 32.0 °F 100% 29.43 in 5.0 mi WSW 6.9 mph - N/A   Overcast
11:15 PM 32.0 °F 24.2 °F 32.0 °F 100% 29.43 in 7.0 mi WSW 9.2 mph - N/A   Mostly Cloudy
11:35 PM 32.0 °F 27.5 °F 32.0 °F 100% 29.42 in 7.0 mi WSW 4.6 mph - N/A   Overcast
11:55 PM 32.0 °F 25.6 °F 32.0 °F 100% 29.42 in 5.0 mi WSW 6.9 mph - N/A   Mostly Cloudy